Change the Weather History Date:

Thursday, September 26, 2013

  Actual Average Record
Temperature  
Mean Temperature 53 °F -  
Max Temperature 61 °F 66 °F 93 °F (2014)
Min Temperature 44 °F 37 °F 25 °F (2002)
Degree Days  
Heating Degree Days 12 14  
Month to date heating degree days 96 223  
Since 1 July heating degree days 115 313  
Cooling Degree Days 0 0  
Month to date cooling degree days 63 24  
Year to date cooling degree days 310 373  
Growing Degree Days 2 (Base 50)    
Moisture  
Dew Point 45 °F    
Average Humidity 80    
Maximum Humidity 96    
Minimum Humidity 51    
Precipitation  
Precipitation 0.00 in 0.03 in 0.11 in (2003)
Month to date precipitation 3.31 1.51  
Year to date precipitation 19.91 13.80  
Sea Level Pressure  
Sea Level Pressure 29.71 in    
Wind  
Wind Speed 15 mph (WNW)    
Max Wind Speed 25 mph    
Max Gust Speed 35 mph    
Visibility 10 miles    
Events Thunderstorm    
T = Trace of Precipitation, MM = Missing Value Source: NWS Daily Summary

Daily Weather History Graph

Daily Weather History Graph

Search for Another Location

Airport or City:

Trip Planner

Search our weather history database for the weather conditions in past years. The results will help you decide how hot, cold, wet, or windy it might be!

Date:

Astronomy

Sep. 26, 2013 Rise Set
Actual Time 6:43 AM MDT 6:39 PM MDT
Civil Twilight 6:13 AM MDT 7:09 PM MDT
Nautical Twilight 5:38 AM MDT 7:44 PM MDT
Astronomical Twilight 5:02 AM MDT 8:19 PM MDT
Moon 11:24 PM MDT (9/26) 1:53 PM MDT (9/26)
Length of Visible Light 12h 56m
Length of Day
11h 56m
Waning Gibbous, 54% of the Moon is Illuminated
Sep 26
Waning Gibbous
Sep 26
Last Quarter
Oct 4
New
Oct 11
First Quarter
Oct 18
Full

Hourly Weather History & Observations

Time (MDT) Temp. Windchill Dew Point Humidity Pressure Visibility Wind Dir Wind Speed Gust Speed Precip Events Conditions
12:53 AM 52.0 °F - 50.0 °F 93% 29.53 in 10.0 mi NNW 9.2 mph - N/A   Partly Cloudy
1:29 AM 51.8 °F - 48.2 °F 88% 29.57 in 10.0 mi Calm Calm - N/A Thunderstorm Mostly Cloudy
1:42 AM 51.8 °F - 48.2 °F 88% 29.56 in 10.0 mi NNW 17.3 mph 20.7 mph N/A Thunderstorm Mostly Cloudy
1:53 AM 51.1 °F - 48.0 °F 89% 29.53 in 10.0 mi NW 15.0 mph 23.0 mph N/A Thunderstorm Mostly Cloudy
2:01 AM 50.0 °F - 48.2 °F 94% 29.57 in 10.0 mi NW 13.8 mph - N/A   Mostly Cloudy
2:11 AM 50.0 °F - 48.2 °F 94% 29.61 in 10.0 mi West 10.4 mph - N/A   Scattered Clouds
2:53 AM 48.9 °F - 46.9 °F 93% 29.60 in 10.0 mi WNW 11.5 mph - N/A   Clear
3:27 AM 48.2 °F - 46.4 °F 93% 29.59 in 10.0 mi NNW 10.4 mph - N/A   Scattered Clouds
3:53 AM 48.9 °F - 46.9 °F 93% 29.55 in 10.0 mi NW 5.8 mph - N/A   Partly Cloudy
4:41 AM 50.0 °F - 48.2 °F 94% 29.60 in 9.0 mi WNW 12.7 mph - N/A   Mostly Cloudy
4:53 AM 50.0 °F - 48.0 °F 93% 29.57 in 9.0 mi WNW 13.8 mph - N/A   Overcast
5:48 AM 50.0 °F - 48.2 °F 94% 29.63 in 7.0 mi West 13.8 mph - N/A   Overcast
5:53 AM 50.0 °F - 48.0 °F 93% 29.62 in 7.0 mi WNW 13.8 mph - N/A   Overcast
6:53 AM 50.0 °F - 48.0 °F 93% 29.64 in 10.0 mi WNW 18.4 mph - N/A   Overcast
7:05 AM 50.0 °F - 46.4 °F 87% 29.66 in 10.0 mi WNW 21.9 mph 28.8 mph N/A   Overcast
7:53 AM 51.1 °F - 48.0 °F 89% 29.66 in 10.0 mi WNW 19.6 mph 25.3 mph N/A   Overcast
8:53 AM 52.0 °F - 48.0 °F 86% 29.69 in 10.0 mi WNW 17.3 mph 25.3 mph N/A   Mostly Cloudy
9:32 AM 55.4 °F - 48.2 °F 77% 29.70 in 10.0 mi West 20.7 mph 27.6 mph N/A   Mostly Cloudy
9:53 AM 53.1 °F - 46.9 °F 80% 29.71 in 10.0 mi WNW 18.4 mph 27.6 mph N/A   Overcast
10:35 AM 55.4 °F - 46.4 °F 72% 29.71 in 10.0 mi West 20.7 mph 26.5 mph N/A   Mostly Cloudy
10:51 AM 55.4 °F - 46.4 °F 72% 29.72 in 10.0 mi West 23.0 mph 27.6 mph N/A   Scattered Clouds
10:53 AM 55.9 °F - 46.0 °F 69% 29.72 in 10.0 mi West 24.2 mph 27.6 mph N/A   Scattered Clouds
11:53 AM 57.9 °F - 45.0 °F 62% 29.74 in 10.0 mi West 20.7 mph 25.3 mph N/A   Scattered Clouds
12:53 PM 57.9 °F - 44.1 °F 60% 29.75 in 10.0 mi West 19.6 mph 34.5 mph N/A   Partly Cloudy
1:53 PM 57.9 °F - 44.1 °F 60% 29.78 in 10.0 mi West 20.7 mph 27.6 mph N/A   Partly Cloudy
2:53 PM 60.1 °F - 43.0 °F 53% 29.77 in 10.0 mi West 23.0 mph 27.6 mph N/A   Clear
3:53 PM 57.9 °F - 41.0 °F 53% 29.81 in 10.0 mi WNW 18.4 mph - N/A   Clear
4:53 PM 55.9 °F - 39.9 °F 55% 29.84 in 10.0 mi WNW 16.1 mph - N/A   Clear
5:53 PM 53.1 °F - 39.0 °F 59% 29.88 in 10.0 mi WNW 13.8 mph - N/A   Scattered Clouds
6:53 PM 46.9 °F - 39.9 °F 77% 29.90 in 10.0 mi NW 9.2 mph - N/A   Scattered Clouds
7:53 PM 46.0 °F 41.4 °F 39.0 °F 76% 29.90 in 10.0 mi NW 9.2 mph - N/A   Clear
8:53 PM 46.0 °F 42.5 °F 39.0 °F 76% 29.93 in 10.0 mi WNW 6.9 mph - N/A   Clear
9:53 PM 44.1 °F 38.1 °F 39.0 °F 82% 29.95 in 10.0 mi WNW 11.5 mph - N/A   Clear
10:53 PM 46.0 °F 41.0 °F 39.0 °F 76% 29.93 in 10.0 mi NW 10.4 mph - N/A   Mostly Cloudy
11:53 PM 46.0 °F 40.2 °F 39.9 °F 79% 29.92 in 10.0 mi NW 12.7 mph - N/A   Mostly Cloudy